IRIDIUM 47 DEB, 40249

Orbit data source: Space-Track

IRIDIUM 47 DEB, 40249 is space debris in LEO originally from a launch on Sat, 20 Dec 1997 UTC launched from the Air Force Western Test Range (AFWTR). Debris objects in space refer to the collection of defunct objects orbiting the Earth. Examples of debris include non-operational satellites, rocket bodies, and fragments generated from explosions, collisions, or faulty payload assembly.

Loading next visibility...
IRIDIUM 47 DEB details
Identifier
40249, 1997-082J
Orbit
LEO
Last TLE update13 hours ago
Origin
Flag of USIridium (US)
ManufacturerUnknown
MissionSpacecraft
Bus & MotorUnknown
MassUnknown
Launch date (UTC)
1997-12-20 (27 years ago)
Launch vehicleUnknown
Launch site
Air Force Western Test Range (AFWTR)
Object type
Payload
Rocket body
Debris
Shape & HBRUnknown
Radar Cross SectionSmall (<0.1 m²)

Expand to show TLE details & history

TLE from 13 hours ago
0 IRIDIUM 47 DEB
1 40249U 97082J   24361.23340714  .00003750  00000-0  11719-2 0  9991
2 40249  86.3929 179.6526 0002207  85.8813 274.2639 14.40556197537413
Epoch: 2024-12-26T05:36Z
Definitive object data (Epoch: 2024-12-26T05:36:06.376Z)
Latitude-0°
Longitude0.41029°
Altitude759.604 km
Speed7.475 km/s
True Right ascension11h 58m 36s
True Declination0° 00' 00"
Sunlit
Object was in daylight at TLE epoch
Visualization TLE readout
Latitude-27.93309°
Longitude-1.72755°
Altitude767.776 km
Speed7.469 km/s
Apparent Right ascension09h 26m 55s
Apparent Declination-41° 34' 38"
Sunlit
Object is in daylight
Visualization observer readout
Local Sidereal Time18:11:07
Azimuth251.044° W
Elevation-53.382°
Doppler factor1
Orbital elements
Apogee altitude755.191 km
Perigee altitude752.043 km
Semi-major axis7,131.754 km
Eccentricity0.0002207
Inclination86.3929°
RAAN179.6526°
Arg. of periapsis85.8813°
True anomaly274.23868°
Mean anomaly274.2639°
Eccentric anomaly274.25129°
Mean motion3.6037 °/min
BSTAR0.0011719
Orbital period99.9 mins
Loading maneuver chart data...

IRIDIUM 47 DEB Visibility forecast

Observer location: undefined°, undefined

Span
Click to sort rows by Start time (UTC) header in descending order
Start Az.
Max El. time (UTC)
Max El. Az.
Max El.
End time (UTC)
End Az.
4 mins2024-12-26 22:52:33.819Z50.688° ENE2024-12-26 22:54:33.819Z74.933° E12.675°2024-12-26 22:56:33.819Z98.817° ESE
8 mins2024-12-27 00:31:33.819Z348.971° N2024-12-27 00:35:33.819Z246.045° WSW42.096°2024-12-27 00:39:33.819Z190.377° SSW
6 mins2024-12-27 11:45:33.819Z119.696° SE2024-12-27 11:47:33.819Z86.848° E23.396°2024-12-27 11:51:33.819Z30.466° NE
7 mins2024-12-27 13:24:33.819Z223.862° SW2024-12-27 13:27:33.819Z271.406° WNW28.086°2024-12-27 13:31:33.819Z337.099° NNW
|